CAPE
0 0 0 0 0 0 0 0 0 0 0 0 0 0 0 0 0 0 0 0 0 0 0 0 0 0 0 0 0 0 0 0 0 0 0 0 0 0 0 0 0 0 0
0 0 0 0 0 0 0 0 0 0 0 0 0 0 0 0 0 0 0 0 0 0 0 0 0 0 0 0 0 0 0 0 0 0 0 0 0 0 0 0 0 0 0
0 0 0 0 0 0 0 0 0 0 0 0 0 0 0 0 0 0 0 0 0 0 0 0 0 0 0 0 0 0 0 0 0 0 0 0 0 0 0 0 0 0 0
0 0 0 0 0 0 0 0 0 0 0 0 0 0 0 0 0 0 0 0 0 0 0 0 0 0 0 0 0 0 0 0 0 0 0 0 0 0 0 0 0 0 0
0 0 0 0 0 0 0 0 0 0 0 0 0 0 0 0 0 0 0 0 0 0 0 0 0 0 0 0 0 0 0 0 0 0 0 0 0 0 0 0 0 0 0
0 0 0 0 0 0 0 0 0 0 0 0 0 0 0 0 0 0 0 0 0 0 0 0 0 0 0 0 0 0 0 0 0 0 0 0 0 0 0 0 0 0 0
0 0 0 0 0 0 0 0 0 0 0 0 0 0 0 0 0 0 0 0 0 0 0 0 0 0 0 0 0 0 0 0 0 0 0 0 0 0 0 0 0 0 0
0 0 0 0 0 0 0 0 0 0 0 0 1 1 2 0 0 0 0 0 0 0 0 0 0 0 0 0 0 0 0 0 0 0 0 0 0 0 0 0 0 0 0
0 0 0 0 0 0 0 0 0 0 0 0 1 3 1 1 0 0 0 0 0 0 0 0 0 0 0 0 0 0 0 0 0 0 0 0 0 0 0 0 0 0 0
0 0 0 0 0 0 0 0 0 0 0 0 0 0 0 0 0 0 0 0 0 0 0 0 0 0 0 0 0 0 0 0 0 0 0 0 0 0 0 0 0 0 0
0 0 0 0 0 0 0 0 0 0 0 0 0 0 0 0 0 0 0 0 0 0 0 0 0 0 0 0 0 0 0 0 0 0 0 0 0 0 0 0 0 0 0
0 0 0 0 0 0 0 0 0 0 0 0 0 0 0 0 0 0 0 0 0 0 0 0 0 0 0 0 0 0 0 0 0 0 0 0 0 0 0 0 0 0 0
0 2 2 2 1 0 0 0 0 0 0 0 0 0 0 0 0 0 0 0 0 0 0 1 2 2 1 0 0 0 0 0 0 0 0 0 0 0 0 0 0 0 0
1 3 3 3 2 2 2 2 2 1 0 0 0 0 0 0 0 0 0 0 0 1 1 0 0 0 1 1 1 1 1 0 0 0 0 0 0 0 0 0 0 0 0
2 1 1 1 0 0 0 0 0 0 0 0 0 0 0 0 0 0 0 0 0 0 0 0 0 0 1 1 1 1 0 0 0 0 0 0 0 0 0 0 0 0 0
0 0 0 0 0 0 0 0 0 0 0 0 0 0 0 0 0 0 0 0 0 0 0 0 0 0 1 1 1 0 0 0 0 0 0 0 0 0 1 2 3 1 0
0 0 0 0 0 0 0 0 0 0 0 0 0 0 0 0 0 0 0 0 0 0 0 0 0 0 0 0 1 2 2 0 0 0 0 0 0 0 0 1 2 1 8
0 0 0 0 0 0 0 0 0 0 0 0 0 0 0 0 0 0 0 0 0 0 0 0 0 0 0 0 0 0 0 0 0 0 0 0 0 0 0 0 0 0 1
0 0 0 0 0 0 0 0 0 0 0 0 0 0 0 0 0 0 0 0 0 0 0 0 0 0 0 0 0 0 0 0 0 0 0 0 0 0 1 2 2 2 4
0 0 0 0 0 0 0 0 0 0 0 0 0 0 0 0 0 0 0 0 0 0 0 0 0 0 0 0 0 0 0 0 0 0 0 0 0 0 0 2 1 1 1
0 0 0 0 0 0 0 0 0 0 0 0 0 0 0 0 0 0 0 0 0 0 0 0 0 0 0 0 0 0 0 0 0 0 0 0 0 0 0 3 2 3 5
0 0 0 0 0 0 0 0 0 0 0 0 0 0 0 0 0 0 0 0 0 0 0 0 0 0 0 0 0 0 0 0 0 0 0 0 0 0 0 2 5 6 7
0 0 0 0 0 0 0 0 0 0 0 0 0 0 0 0 0 0 0 0 0 0 0 0 0 0 0 0 0 0 0 0 0 0 0 0 0 0 2 4 10 14 4
0 0 0 0 0 0 0 0 0 0 0 0 0 0 0 0 0 0 0 0 0 0 0 0 0 0 0 0 0 0 0 0 0 0 0 0 0 0 0 0 1 3 3
0 0 0 0 0 0 0 0 0 0 0 0 0 0 0 0 0 0 0 0 0 0 0 0 0 0 0 0 0 0 0 0 0 0 2 1 0 0 0 0 0 0 0
0 0 0 0 0 0 0 0 0 0 0 0 0 0 0 0 0 0 0 0 0 1 2 3 4 2 9 12 22 29 16 12 19 8 2 0 0 0 0 0 1 2 2
CIN
0 0 0 0 0 0 0 0 0 0 0 0 0 0 0 0 0 0 0 0 0 0 0 0 0 0 0 0 0 0 0 0 0 0 0 0 0 0 0 0 0 0 0
0 0 0 0 0 0 0 0 0 0 0 0 0 0 0 0 0 0 0 0 0 0 0 0 0 0 0 0 0 0 0 0 0 0 0 0 0 0 0 0 0 0 0
0 0 0 0 0 0 0 0 0 0 0 0 0 0 0 0 0 0 0 0 0 0 0 0 0 0 0 0 0 0 0 0 0 0 0 0 0 0 0 0 0 0 0
0 0 0 0 0 0 0 0 0 0 0 0 0 0 0 0 0 0 0 0 0 0 0 0 0 0 0 0 0 0 0 0 0 0 0 0 0 0 0 0 0 0 0
0 0 0 0 0 0 0 0 0 0 0 0 0 0 0 0 0 0 0 0 0 0 0 0 0 0 0 0 0 0 0 0 0 0 0 0 0 0 0 0 0 0 0
0 0 0 0 0 0 0 0 0 0 0 0 0 0 0 0 0 0 0 0 0 0 0 0 0 0 0 0 0 0 0 0 0 0 0 0 0 0 0 0 0 0 0
0 0 0 0 0 0 0 0 0 0 0 0 0 0 0 0 0 0 0 0 0 0 0 0 0 0 0 0 0 0 0 0 0 0 0 0 0 0 0 0 0 0 0
0 0 0 0 0 0 0 0 0 0 0 0 0 0 -1 0 0 0 0 0 0 0 0 0 0 0 0 0 0 0 0 0 0 0 0 0 0 0 0 0 0 0 0
0 0 0 0 0 0 0 0 0 0 0 -1 -1 0 0 0 0 0 0 0 0 0 0 0 0 0 0 0 0 0 0 0 0 0 0 0 0 0 0 0 0 0 0
0 0 0 0 0 0 0 0 0 0 0 0 0 0 0 0 0 0 0 0 0 0 0 0 0 0 0 0 0 0 0 0 0 0 0 0 0 0 0 0 0 0 0
0 0 0 0 0 0 0 0 0 0 0 0 0 0 0 0 0 0 0 0 0 0 0 0 0 0 0 0 0 0 0 0 0 0 0 0 0 0 0 0 0 0 0
0 0 0 0 0 0 0 0 0 0 0 0 0 0 0 0 0 0 0 0 0 0 0 0 0 0 0 0 0 0 0 0 0 0 0 0 0 0 0 0 0 0 0
0 0 0 0 0 0 0 0 0 0 0 0 0 0 0 0 0 0 0 0 0 0 0 0 0 0 0 0 0 0 0 0 0 0 0 0 0 0 0 0 0 0 0
0 0 0 0 0 0 0 0 0 0 0 0 0 0 0 0 0 0 0 0 0 0 0 0 0 0 0 0 0 0 0 0 0 0 0 0 0 0 0 0 0 0 0
0 0 0 0 0 0 0 0 0 0 0 0 0 0 0 0 0 0 0 0 0 0 0 0 0 0 0 0 0 0 0 0 0 0 0 0 0 0 0 0 0 0 0
0 0 0 0 0 0 0 0 0 0 0 0 0 0 0 0 0 0 0 0 0 0 0 0 0 0 0 0 0 0 0 -1 0 0 0 0 0 0 -1 -1 -1 -1 0
0 0 0 0 0 0 0 0 0 0 0 0 0 0 0 0 0 0 0 0 0 0 0 0 0 0 0 0 0 0 0 0 0 0 0 0 0 -1 0 -2 -1 -3 -1
0 0 0 0 0 0 0 0 0 0 0 0 0 0 0 0 0 0 0 0 0 0 0 0 0 0 0 0 0 0 0 0 0 0 0 0 0 0 -1 -2 0 0 -1
0 0 0 0 0 0 0 0 0 0 0 0 0 0 0 0 0 0 0 0 0 0 0 0 0 0 0 0 0 0 0 0 0 0 0 0 0 0 -1 -2 -2 -3 -2
0 0 0 0 0 0 0 0 0 0 0 0 0 0 0 0 0 0 0 0 0 0 0 0 0 0 0 0 0 0 0 0 0 0 0 0 0 0 -1 -3 -3 -2 -2
0 0 0 0 0 0 0 0 0 0 0 0 0 0 0 0 0 0 0 0 0 0 0 0 0 0 0 0 0 0 0 0 0 0 0 0 0 0 -2 -2 -3 -2 -1
0 0 0 0 0 0 0 0 0 0 0 0 0 0 0 0 0 0 0 0 0 0 0 0 0 0 0 0 0 0 0 0 0 0 0 0 0 0 -3 -3 -3 -3 -3
0 0 0 0 0 0 0 0 0 0 0 0 0 0 0 0 0 0 0 0 0 0 0 0 0 0 0 0 0 0 0 0 0 0 0 0 0 -3 -4 -3 -5 -3 -3
0 0 0 0 0 0 0 0 0 0 0 0 0 0 0 0 0 0 0 0 0 0 0 0 0 0 0 0 0 0 0 0 0 0 0 0 0 0 -1 0 -2 -2 -1
0 0 0 0 0 0 0 0 0 0 0 0 0 0 0 0 0 0 0 0 0 0 0 0 0 0 0 0 0 -1 0 0 0 -1 -1 -2 0 0 0 0 0 0 0
0 0 0 0 0 0 0 0 0 0 0 0 0 0 0 0 0 0 0 0 0 -1 -2 -4 -3 -1 -1 -2 -2 -1 -4 -4 -2 -5 -7 0 0 0 0 0 -1 -6 -3
Wind_Speed
15 12 10 8 7 7 7 7 6 5 4 4 4 5 6 6 7 9 9 9 10 10 11 11 12 13 13 13 14 14 14 15 15 14 14 15 15 17 18 18 18 18 19
15 10 8 8 8 8 8 8 7 7 6 6 6 7 7 8 8 8 9 10 10 10 10 11 12 12 13 14 14 15 14 15 16 16 16 15 14 16 18 19 19 19 19
12 9 7 8 8 9 10 9 8 8 8 7 7 8 8 9 9 8 9 9 9 10 10 11 12 13 14 14 15 16 16 16 17 17 18 17 18 18 17 19 19 19 19
14 10 8 8 9 10 9 10 9 9 9 8 9 9 10 11 11 9 9 10 9 10 10 11 12 13 14 15 16 17 17 17 17 17 18 18 19 20 20 18 19 20 20
15 11 9 10 10 10 10 10 10 10 10 10 10 11 12 12 11 10 10 10 10 11 11 12 12 13 14 15 16 17 18 18 18 19 18 19 19 20 21 22 19 19 20
17 14 12 11 11 10 10 11 11 11 11 11 12 12 13 13 13 12 12 11 12 12 13 13 14 14 15 16 17 18 19 19 19 19 20 20 20 20 20 21 23 24 21
19 17 15 13 12 11 11 11 12 12 12 13 14 14 15 14 14 14 13 13 14 15 15 15 16 16 17 17 18 19 19 19 19 20 20 21 21 20 21 23 24 25 22
23 21 18 15 13 12 12 12 13 13 13 14 15 16 16 16 16 15 16 16 16 16 15 16 16 17 17 19 19 20 21 21 21 22 23 23 22 22 22 24 25 26 24
23 22 20 16 14 13 13 13 13 14 15 15 16 17 17 17 17 16 16 17 17 17 16 16 17 17 19 20 20 21 22 23 23 24 25 25 24 24 23 24 24 26 28
22 22 22 18 17 16 13 13 14 15 17 17 17 17 18 18 18 18 18 18 18 17 17 17 17 18 20 20 20 22 23 24 24 25 26 26 27 26 26 25 26 26 28
23 24 22 19 18 15 14 15 16 17 18 18 18 18 19 19 18 18 18 18 18 18 18 18 18 18 19 21 23 23 24 25 27 27 29 30 29 28 26 26 27 27 27
24 23 21 20 19 18 18 18 17 18 19 19 19 19 19 18 18 18 18 17 19 18 19 18 19 20 21 22 24 25 25 26 27 27 29 29 28 27 29 29 29 29 28
27 25 23 23 23 24 23 20 21 21 21 20 20 21 20 19 20 19 19 20 20 21 21 20 22 24 22 22 23 23 23 23 24 27 28 28 29 30 31 30 30 31 30
28 27 27 27 27 26 24 24 24 23 21 20 21 22 22 22 22 20 20 20 20 22 21 20 21 22 21 21 19 19 20 21 22 24 26 27 29 31 32 31 32 32 33
31 30 29 28 27 26 25 25 24 23 21 22 22 23 20 20 19 20 20 19 19 19 20 19 20 20 19 18 19 20 21 23 25 25 26 29 29 31 32 33 35 35 37
33 31 29 27 27 26 25 25 25 24 23 23 23 23 22 23 22 20 21 18 18 17 17 19 20 19 19 19 20 21 23 25 27 29 31 30 32 34 36 36 35 36 36
32 29 27 26 26 26 25 25 25 25 23 22 22 23 23 24 24 22 22 21 20 20 21 22 23 23 23 23 24 25 27 27 29 31 33 33 33 33 34 35 37 37 34
31 30 28 28 27 26 26 26 25 25 24 22 23 24 25 25 26 26 24 23 22 23 24 25 24 25 26 25 27 28 30 31 32 32 33 34 34 34 35 35 35 34 33
31 30 29 29 28 27 28 28 27 25 25 26 26 26 27 28 28 28 27 27 27 27 27 27 28 28 29 28 28 29 30 32 33 34 34 34 36 35 34 34 35 34 33
32 31 31 30 29 29 29 28 27 28 27 25 27 28 27 28 28 28 29 28 27 28 28 29 28 29 29 30 31 31 33 35 36 34 34 35 35 34 33 33 34 35 33
35 34 34 33 31 29 29 30 30 28 27 26 27 28 28 28 28 29 28 28 28 29 30 33 32 33 32 32 32 32 32 34 35 34 34 32 32 33 33 33 33 34 33
37 35 34 34 33 29 30 32 32 29 28 29 28 28 28 28 29 30 30 30 32 34 34 34 34 33 32 31 30 31 31 32 34 35 35 36 37 36 36 36 36 35 38
36 34 33 32 32 30 30 32 31 31 32 32 33 31 31 31 32 33 34 35 34 34 36 36 37 34 32 32 32 33 33 34 36 36 37 39 39 38 40 40 40 39 38
37 36 35 36 37 36 35 36 35 35 35 36 36 36 36 36 36 35 34 35 35 37 37 37 38 37 36 35 34 34 34 34 36 35 36 36 36 37 37 39 40 38 37
40 40 40 41 41 40 40 39 38 38 40 40 40 40 38 38 39 37 37 37 36 36 38 38 38 39 39 37 35 33 33 33 34 35 36 37 37 38 37 37 37 36 37
43 43 43 43 44 44 44 42 40 40 42 43 42 40 40 39 40 41 41 38 39 39 39 39 38 37 37 37 38 39 38 39 40 40 41 41 40 41 41 41 39 37 37
Wind_Direction
294 284 267 251 240 234 228 222 225 224 232 263 277 295 300 311 314 315 318 323 326 329 332 335 335 335 336 337 339 344 346 346 345 350 355 358 353 342 338 338 339 338 332
295 282 264 244 235 229 228 228 232 229 234 262 277 294 296 302 305 309 312 315 319 323 326 328 329 332 333 331 330 330 337 338 337 333 335 337 341 339 332 329 329 330 331
303 287 263 242 243 239 233 233 234 236 240 252 273 290 295 299 297 296 302 308 314 318 320 323 323 324 323 323 324 325 324 327 330 331 327 329 327 328 329 325 324 324 326
309 297 271 255 256 253 246 242 242 242 244 247 264 264 275 279 284 284 294 299 305 308 312 315 317 318 318 317 318 319 319 319 320 325 327 328 324 321 317 321 320 320 320
314 305 289 282 275 262 248 245 242 239 243 248 260 265 275 281 283 283 285 292 297 301 304 307 309 310 311 312 311 312 314 317 316 317 320 321 323 321 316 312 313 315 318
319 314 306 297 284 271 258 251 245 243 245 248 259 264 271 277 278 277 277 284 290 295 299 301 303 305 306 305 305 306 309 313 315 315 318 316 316 317 315 312 308 305 310
317 316 309 300 286 270 259 253 245 246 247 252 261 267 271 274 276 274 275 278 284 290 293 296 297 299 299 300 301 302 305 308 310 311 313 313 314 316 313 308 306 304 307
314 314 312 304 290 277 265 255 249 250 251 256 263 269 272 275 277 275 276 278 282 287 293 294 295 296 296 297 299 300 301 303 305 305 307 308 308 310 309 305 303 301 301
311 312 315 307 296 288 273 263 258 258 261 263 266 269 270 272 276 277 278 279 281 285 289 293 292 292 292 295 297 298 298 300 302 302 302 303 304 305 304 302 302 299 298
310 312 313 306 302 298 285 274 269 268 268 268 269 271 273 275 278 279 276 277 281 284 287 291 291 291 291 294 295 298 299 300 301 301 300 299 299 299 299 299 298 297 296
309 310 307 306 306 303 295 287 279 275 273 272 272 273 276 278 279 279 279 280 282 285 287 290 291 290 291 292 295 297 298 298 299 299 297 295 293 297 296 296 296 296 297
308 307 307 303 303 301 299 294 287 282 279 277 276 276 277 278 278 278 280 281 285 287 289 292 291 290 293 294 294 295 297 296 296 296 292 294 293 296 294 295 295 295 297
303 304 304 303 302 302 300 296 295 291 289 285 280 279 277 277 277 280 284 285 287 290 291 291 289 288 292 294 296 298 298 298 297 294 294 294 292 292 292 293 294 294 295
303 302 303 304 305 304 299 298 299 293 290 287 285 281 281 279 276 278 281 284 286 286 290 292 291 291 293 296 299 300 299 299 298 296 295 295 291 290 291 294 292 293 293
304 303 303 304 305 304 303 303 304 301 299 293 292 290 289 289 283 280 283 286 288 289 290 291 291 292 297 300 299 299 301 299 298 297 296 294 294 292 292 292 292 292 291
310 310 309 307 306 306 304 304 305 302 301 298 296 295 295 290 287 289 289 292 293 294 294 292 291 293 298 298 297 297 298 298 298 297 296 297 294 292 291 291 292 291 293
314 314 313 311 310 309 308 307 304 302 301 302 300 297 296 293 293 294 293 293 294 295 292 292 293 294 295 296 296 297 297 297 296 295 295 296 296 294 294 294 293 292 291
321 319 316 314 315 314 311 308 305 301 305 305 300 298 294 295 293 294 295 295 297 295 294 294 297 296 297 297 298 298 297 297 296 295 295 295 294 295 295 295 295 296 296
319 321 322 312 315 315 310 308 306 306 304 298 298 297 295 292 292 294 296 294 294 296 296 296 296 295 296 298 298 298 298 298 297 296 294 294 293 294 294 294 294 295 294
322 323 321 317 315 313 311 310 311 306 304 307 301 300 299 295 295 297 297 298 297 297 298 297 299 300 299 298 299 299 299 297 297 298 297 295 294 295 294 294 294 293 293
318 317 316 314 314 316 315 311 309 307 306 305 304 302 301 300 300 299 300 299 299 298 297 297 298 298 299 299 300 300 299 299 299 299 299 298 295 294 293 291 291 290 292
316 319 316 315 316 318 314 308 306 307 308 306 308 306 305 305 302 299 299 298 296 295 297 298 299 301 302 302 302 301 300 299 298 297 297 296 294 293 291 291 290 290 290
319 322 320 319 317 317 313 309 310 307 306 305 303 304 302 301 299 297 297 297 297 296 296 297 297 301 302 302 302 301 300 299 297 297 295 294 293 292 291 290 289 289 289
320 318 316 313 310 308 306 303 305 305 304 301 301 301 299 298 298 298 298 297 296 296 297 297 297 298 299 300 301 301 301 300 298 298 298 296 295 293 292 291 289 288 289
316 314 311 309 308 307 305 306 306 304 300 299 299 298 300 299 298 298 297 296 296 296 295 296 296 297 297 298 299 299 299 299 298 298 297 295 293 292 292 292 290 290 288
316 313 312 309 307 306 305 306 306 304 300 299 299 300 299 298 297 297 297 297 295 295 294 293 293 295 295 295 296 297 296 296 297 296 295 294 293 292 291 291 291 292 290